Location: LDNL
(36.4545°S, 141.6685°E)
Time: 19:49:20
(UTC+10:00)

A-11 Canister half - Pass Details

Date: 01 February 2022
Orbit: 1527 x 1682 km, 47.3° (Epoch: 20 May)

Event Time Altitude Azimuth Distance (km) Brightness Sun altitude
Rises 23:32:56 0° 289° (WNW) 4,932 11.9 -27.9°
Reaches altitude 10° 23:36:09 10° 286° (WNW) 3,949 11.3 -28.3°
Maximum altitude 23:46:16 64° 205° (SSW) 1,832 9.5 -29.4°
Drops below altitude 10° 23:56:16 10° 123° (ESE) 3,906 11.1 -30.5°
Sets 23:59:27 0° 120° (ESE) 4,875 11.6 -30.8°
